sat.trackr.live / text

‹ back to catalog

STARLINK-32954

NORAD 63567 · 2025-075V

PAYLOAD ACTIVE UNKNOWN

§ Identity

Operator
Country
US
Launch date
2025-04-13
Launch site
AFETR
Launch vehicle
Mass (kg)
RCS (m²)

Purposes: comms

External: N2YO · Heavens-Above · Gunter

§ Orbital elements

Epoch: 2026-09-20T09:01:36.502752Z

Period
94.27 min
Inclination
42.9989°
Eccentricity
0.0001162
Mean motion
15.27590962 rev/d
Perigee alt
482.2 km
Apogee alt
483.8 km
Semi-major
6,861.2 km
B*
5.5574e-4
RAAN
250.9904°
Arg perigee
258.9115°
Mean anomaly
101.1606°
Rev number
8,170

§ Raw data

STARLINK-329541 63567U 25075V   26263.37611693  .00015067  00000+0  55574-3 0  99982 63567  42.9989 250.9904 0001162 258.9115 101.1606 15.27590962 81707

JSON: /api/v1/satellites/63567 · /tle

For live sub-satellite position, see the globe view (requires WebGL).

§ Visibility from observer

Set your observer location to see the next 7 days of passes ≥ 10°. The values pass through the URL so the page stays shareable.

No JS? Fill the form by hand. The geolocation button needs JavaScript.